Location: Unspecified
(43.8044°N, 11.0278°E)
Time: 15:19:24
(UTC+02:00)

Okean 3 - Visible Passes

Search period start: 05 July 2015 00:00
Search period end: 15 July 2015 00:00
Orbit: 579 x 606 km, 82.5° (Epoch: 05 July)

Date Brightness Start Highest point End Pass type
(mag) Time Alt. Az. Time Alt. Az. Time Alt. Az.
05 Jul 5.8 01:36:26 10° WNW 01:38:13 12° W 01:38:29 12° W visible
06 Jul 3.3 00:06:13 10° N 00:10:26 88° E 00:10:55 69° SSE visible
06 Jul 5.7 22:39:54 10° NE 22:41:39 13° ENE 22:43:22 11° E visible
07 Jul 3.6 00:15:20 10° NNW 00:19:29 59° W 00:19:59 54° SW visible
07 Jul 5.2 22:48:02 10° NNE 22:50:57 18° ENE 22:52:26 16° E visible
08 Jul 4.3 00:24:34 10° NNW 00:28:30 38° W 00:29:03 36° WSW visible
08 Jul 4.7 22:56:37 10° NNE 23:00:11 27° ENE 23:01:31 23° ESE visible
09 Jul 5.0 00:33:59 10° NNW 00:37:28 25° W 00:38:07 24° WSW visible
09 Jul 4.1 23:05:24 10° N 23:09:22 40° ENE 23:10:37 32° ESE visible
10 Jul 5.5 00:43:36 10° NW 00:46:25 17° W 00:47:13 16° W visible
10 Jul 3.5 23:14:18 10° N 23:18:29 62° E 23:19:43 42° SE visible
11 Jul 6.0 00:53:55 10° WNW 00:55:20 11° W 00:56:19 10° W visible
11 Jul 3.4 23:23:20 10° N 23:27:33 85° W 23:28:50 45° S visible
12 Jul 5.6 21:56:45 10° NE 21:58:49 14° ENE 22:01:05 10° E visible
12 Jul 3.9 23:32:28 10° NNW 23:36:35 54° W 23:37:57 37° SSW visible
13 Jul 5.1 22:05:01 10° NNE 22:08:06 20° ENE 22:10:29 13° ESE visible
13 Jul 4.7 23:41:43 10° NNW 23:45:35 35° W 23:47:05 26° SW visible
14 Jul 4.6 22:13:38 10° NNE 22:17:19 29° ENE 22:19:38 18° ESE visible
14 Jul 5.3 23:51:08 10° NW 23:54:33 23° W 23:56:16 18° WSW visible
